SCP
0 0 0 0 0 0 0 0 0 0 0 0 0 0 0 0 0 1 1 1 1 1 1 0 0 0 0 0 0 0 0 0 0 0 0 0 0 0 0 0 0 0 0
0 0 0 0 0 0 0 0 0 0 0 0 0 0 0 0 0 0 0 1 1 1 1 0 0 0 0 0 0 0 0 0 0 0 0 0 0 0 0 0 0 0 0
0 0 0 0 0 0 0 0 0 0 0 0 0 0 0 0 0 0 0 1 1 0 0 0 0 0 0 0 0 0 0 0 0 0 0 0 0 0 0 0 0 0 0
0 0 0 0 0 0 0 0 0 0 0 0 0 0 0 0 0 0 0 0 0 0 0 0 0 0 0 0 0 0 0 0 0 0 0 0 0 0 0 0 0 0 0
0 0 0 0 0 0 0 0 0 0 0 0 0 0 0 0 0 0 0 0 0 0 0 0 0 0 0 0 0 0 0 0 0 0 0 0 0 0 0 0 0 0 0
0 0 0 0 0 0 0 0 0 0 0 0 0 0 0 0 0 0 0 0 0 0 0 0 0 0 0 0 0 0 0 0 0 0 0 0 0 0 0 0 0 0 0
0 0 0 0 0 0 0 0 0 0 0 0 0 0 0 0 0 0 0 0 0 0 0 0 0 0 0 0 0 0 0 0 0 0 0 0 0 0 0 0 0 0 0
0 0 0 0 0 0 0 0 0 0 0 0 0 0 0 0 0 0 0 0 0 0 0 0 0 0 0 0 0 0 0 0 0 0 0 0 0 0 0 0 0 0 0
0 0 0 0 0 0 0 0 0 0 0 0 0 0 0 0 0 0 0 0 0 0 0 0 0 0 0 0 0 0 0 0 0 0 0 0 0 0 0 0 0 0 0
0 0 0 0 0 0 0 0 0 0 0 0 0 0 0 0 0 0 0 0 0 0 0 0 0 0 0 0 0 0 0 0 0 0 0 0 0 0 0 0 0 0 0
0 0 0 0 0 0 0 0 0 0 0 0 0 0 0 0 0 0 0 0 0 0 0 0 0 0 0 0 0 0 0 0 0 0 0 0 0 0 0 0 0 0 0
0 0 0 0 0 0 0 0 0 0 0 0 0 0 0 0 0 0 0 0 0 0 0 0 0 0 0 0 0 0 0 0 0 0 0 0 0 0 0 0 0 0 0
0 0 0 0 0 0 0 0 0 0 0 0 0 0 0 0 0 0 0 0 0 0 0 0 0 0 0 0 0 0 0 0 0 0 0 0 0 0 0 0 0 0 0
0 0 0 0 0 0 0 0 0 0 0 0 0 0 0 0 0 0 0 0 0 0 0 0 0 0 0 0 0 0 0 0 0 0 0 0 0 0 0 0 0 0 0
0 0 0 0 0 0 0 0 0 0 0 0 0 0 0 0 0 0 0 0 0 0 0 0 0 0 0 0 0 0 0 0 0 0 0 0 0 0 0 0 0 0 0
0 0 0 0 0 0 0 0 0 0 0 0 0 0 0 0 0 0 0 0 0 0 0 0 0 0 0 0 0 0 0 0 0 0 0 0 0 0 0 0 0 0 0
0 0 0 0 0 0 0 0 0 0 0 0 0 0 0 0 0 0 0 0 0 0 0 0 0 0 0 0 0 0 0 0 0 0 0 0 0 0 0 0 0 0 0
0 0 0 0 0 0 0 0 0 0 0 0 0 0 0 0 0 0 0 0 0 0 0 0 0 0 0 0 0 0 0 0 0 0 0 0 0 0 0 0 0 0 0
0 0 0 0 0 0 0 0 0 0 0 0 0 0 0 0 0 0 0 0 0 0 0 0 0 0 0 0 0 0 0 0 0 0 0 0 0 0 0 0 0 0 0
0 0 0 0 0 0 0 0 0 0 0 0 0 0 0 0 0 0 0 0 0 0 0 0 0 0 0 0 0 0 0 0 0 0 0 0 0 0 0 0 0 0 0
0 0 0 0 0 0 0 0 0 0 0 0 0 0 0 0 0 0 0 0 0 0 0 0 0 0 0 0 0 0 0 0 0 0 0 0 0 0 0 0 0 0 0
0 0 0 0 0 0 0 0 0 0 0 0 0 0 0 0 0 0 0 0 0 0 0 0 0 0 0 0 0 0 0 0 0 0 0 0 0 0 0 0 0 0 0
0 0 0 0 0 0 0 0 0 0 0 0 0 0 0 0 0 0 0 0 0 0 0 0 0 0 0 0 0 0 0 0 0 0 0 0 0 0 0 0 0 0 0
0 0 0 0 0 0 0 0 0 0 0 0 0 0 0 0 0 0 0 0 0 0 0 0 0 0 0 0 0 0 0 0 0 0 0 0 0 0 0 0 0 0 0
0 0 0 0 0 0 0 0 0 0 0 0 0 0 0 0 0 0 0 0 0 0 0 0 0 0 0 0 0 0 0 0 0 0 0 0 0 0 0 0 0 0 0
0 0 0 0 0 0 0 0 0 0 0 0 0 0 0 0 0 0 0 0 0 0 0 0 0 0 0 0 0 0 0 0 0 0 0 0 0 0 0 0 0 0 0
Wind_Speed
7 7 6 6 6 6 5 6 5 5 5 5 6 6 6 6 6 5 6 7 8 7 6 6 7 5 4 3 3 3 4 4 5 2 1 4 6 8 8 7 7 7 8
8 8 8 8 7 7 7 8 7 6 6 6 5 6 7 7 6 6 7 7 7 8 8 7 7 5 5 4 3 4 4 5 4 4 3 4 6 9 9 8 7 7 7
9 9 9 9 9 9 9 9 8 7 7 7 6 6 6 7 7 6 7 7 7 7 8 8 8 7 6 4 4 4 4 4 4 5 4 4 5 8 10 8 9 7 8
9 9 10 10 10 10 10 9 9 9 8 8 8 7 7 7 7 7 7 7 7 7 7 7 8 8 8 6 5 5 4 4 5 6 7 7 6 8 8 9 8 6 6
9 10 11 11 10 9 9 9 10 10 11 10 9 8 8 7 7 7 6 6 6 6 6 6 7 9 10 8 5 5 5 4 6 7 8 7 8 9 8 6 9 8 6
10 11 11 10 9 9 9 9 9 9 10 9 9 9 9 8 10 11 8 6 6 7 6 5 6 8 10 10 10 9 8 8 8 8 7 10 10 10 8 9 10 9 5
11 11 11 10 10 10 9 8 8 9 9 9 10 10 10 11 14 14 13 7 7 7 7 5 5 7 8 5 6 6 6 10 11 9 10 11 11 12 12 11 8 6 6
11 11 10 9 9 9 8 8 8 7 7 8 9 10 9 11 14 14 13 8 6 7 7 7 7 7 8 8 5 4 3 4 7 7 9 9 11 11 10 10 10 8 7
11 11 9 9 9 8 9 9 8 7 7 7 6 8 9 10 13 13 12 5 5 7 7 7 7 8 11 11 8 7 5 4 7 11 12 14 16 15 12 10 9 10 9
13 12 11 9 9 9 9 8 7 7 7 7 7 8 8 9 11 13 11 4 5 5 5 5 9 10 13 14 10 9 9 8 9 11 12 14 13 13 13 9 10 11 9
13 13 12 11 10 9 9 8 7 7 6 7 8 7 8 9 10 13 12 6 6 5 5 4 5 11 14 15 11 8 11 11 10 11 10 9 8 7 7 6 7 10 9
13 13 12 10 10 10 7 7 6 6 6 7 6 6 6 7 9 10 13 12 9 6 5 4 4 10 13 15 10 11 15 12 9 9 8 7 7 6 5 5 6 5 5
13 12 11 10 9 8 7 7 6 5 5 5 5 5 5 5 6 12 13 13 12 6 4 5 5 10 12 11 12 17 15 9 9 9 8 6 4 5 6 6 6 6 6
13 11 9 8 7 7 6 6 6 5 5 5 5 5 5 4 4 4 4 6 8 6 4 4 5 9 9 10 12 12 8 8 10 9 7 5 5 5 5 6 6 6 6
11 9 7 6 6 6 5 5 6 6 6 6 5 5 4 4 6 8 6 6 5 5 5 3 3 5 6 7 8 8 7 8 8 6 8 7 6 6 5 4 4 4 5
9 7 5 4 4 4 4 4 5 6 8 11 9 6 5 6 6 7 8 9 10 10 6 4 5 6 7 9 10 8 7 8 8 8 8 7 7 7 5 3 4 5 6
8 7 4 4 3 3 3 2 2 2 1 2 4 6 5 4 5 6 7 8 10 11 5 5 5 6 7 8 9 8 7 8 8 9 9 8 7 6 6 5 5 5 5
8 7 6 3 3 3 2 2 2 2 1 1 2 2 3 5 6 7 9 8 5 5 3 4 5 6 6 7 8 7 8 8 8 8 8 7 7 6 6 6 5 5 4
7 5 4 3 2 2 2 1 1 2 2 2 2 3 4 5 5 6 8 4 4 5 4 3 4 5 5 6 7 8 9 9 8 8 7 7 7 6 6 6 6 7 5
6 10 7 3 3 2 1 1 1 2 3 3 3 3 3 3 2 3 3 3 3 4 4 3 3 4 5 6 7 8 8 8 9 7 7 7 6 6 7 7 7 6 5
6 6 8 4 3 2 1 1 1 2 3 3 3 4 6 3 3 4 3 3 3 3 3 2 3 4 5 5 7 9 10 8 8 7 7 6 6 6 6 6 7 7 6
5 4 3 3 2 2 1 1 1 2 3 4 3 3 6 3 3 3 3 3 2 2 2 2 3 5 6 7 8 8 8 8 7 7 7 6 6 6 6 5 6 5 6
6 4 3 3 2 3 2 2 1 2 3 4 4 3 3 2 3 3 3 2 2 1 1 1 3 4 5 6 7 8 9 8 8 9 8 7 6 6 5 5 7 6 6
6 4 3 3 2 2 2 2 2 2 3 3 3 3 3 2 3 3 2 2 2 1 1 2 3 7 9 7 6 6 7 8 8 8 10 8 7 6 5 5 6 7 7
5 4 3 3 2 2 2 2 2 2 3 3 3 3 3 3 3 3 2 2 2 1 1 2 2 5 9 9 8 7 10 12 10 8 7 7 8 7 6 6 5 5 5
6 5 3 3 2 2 2 1 2 2 3 3 3 3 3 3 3 3 2 2 2 1 1 1 3 5 7 7 10 11 11 11 11 11 7 6 7 6 6 5 6 6 6
Wind_Direction
247 247 248 250 251 255 261 267 273 281 294 301 304 305 303 300 290 260 239 226 223 228 227 223 228 220 220 224 217 212 211 205 220 205 157 138 133 128 117 109 104 99 101
243 246 248 249 249 251 254 258 261 266 273 277 285 293 296 297 298 290 274 254 232 228 226 221 226 220 220 219 217 222 221 209 199 185 159 150 140 137 128 118 108 102 99
241 242 248 252 251 251 252 255 256 257 263 267 270 274 281 285 287 285 280 271 253 237 226 218 218 212 221 220 219 228 229 217 192 168 158 145 135 136 127 113 107 103 99
240 238 241 244 245 246 248 249 250 249 251 255 255 256 262 269 275 278 280 277 266 253 237 222 212 205 212 215 220 226 223 208 182 166 158 150 141 136 131 128 120 110 104
239 238 238 240 240 242 244 246 247 247 248 246 246 249 252 257 261 263 265 279 280 268 251 231 215 208 208 207 212 216 208 197 178 167 159 150 148 149 142 138 129 116 91
238 236 234 232 233 234 236 240 243 246 248 245 242 242 244 250 258 263 263 268 272 264 252 240 223 209 208 212 219 218 207 194 182 168 162 160 154 147 138 142 138 134 119
242 238 232 227 226 228 232 234 235 240 242 242 242 238 239 243 248 256 261 259 259 260 244 225 221 207 193 196 204 208 208 200 182 166 162 159 154 151 146 145 145 131 124
259 251 242 231 227 226 226 229 233 234 233 236 237 234 235 243 244 247 255 253 250 252 242 226 214 198 193 183 172 165 161 164 166 159 153 148 146 147 146 142 136 113 105
283 270 257 245 238 231 226 228 229 230 233 232 230 229 229 241 245 245 247 238 242 249 246 233 213 198 193 178 163 157 143 129 125 130 131 132 136 138 138 134 135 135 138
286 280 270 258 250 243 237 232 228 226 231 234 234 227 224 233 242 244 239 218 234 244 242 232 218 203 185 177 168 163 155 146 134 125 122 125 133 141 147 151 150 149 144
291 285 274 261 251 246 242 236 231 230 231 233 235 234 228 229 239 240 232 207 217 231 231 221 212 201 186 181 174 168 159 146 136 131 128 127 128 135 145 150 155 157 154
292 285 279 270 263 263 246 237 230 224 226 232 232 239 237 232 230 236 231 218 210 213 223 214 207 194 186 180 173 154 146 139 133 131 130 131 133 135 137 139 144 145 151
293 286 278 271 263 257 250 243 235 223 222 225 220 230 240 235 234 234 228 218 212 206 215 209 203 189 180 177 167 153 151 145 141 138 138 134 130 130 121 110 106 105 90
296 292 285 275 267 258 249 239 231 223 218 217 216 224 232 233 233 220 203 200 201 201 206 198 185 180 180 168 160 158 155 150 147 141 135 128 119 117 124 126 124 118 100
305 298 291 281 274 266 254 240 229 221 209 204 210 207 207 223 226 201 180 183 185 183 166 160 155 166 178 165 160 157 144 139 134 130 135 133 130 126 124 123 121 112 117
311 304 294 287 281 274 270 272 252 238 230 221 218 209 213 216 208 198 194 185 175 163 158 166 171 175 178 168 160 153 144 143 142 140 141 141 140 138 130 120 117 125 130
313 308 300 290 282 278 269 259 274 317 329 218 221 220 212 177 168 169 170 168 168 162 167 171 170 173 171 164 158 150 144 145 144 146 147 146 143 139 134 132 127 125 130
322 318 314 289 280 276 268 247 209 178 135 77 62 84 130 140 149 154 152 145 160 175 166 165 163 161 159 157 152 144 140 143 145 146 147 147 145 142 142 143 144 144 142
328 323 319 313 302 286 274 252 182 163 150 130 108 79 98 115 125 156 164 170 168 161 150 145 145 145 148 150 147 144 145 147 149 148 150 151 150 143 147 155 158 158 144
329 336 343 338 340 347 3 33 107 138 141 137 144 147 145 137 143 164 185 174 154 144 144 139 138 142 148 149 145 144 144 147 149 148 152 154 153 151 153 158 163 163 164
328 334 351 358 355 357 6 26 105 133 142 142 152 168 171 164 165 165 165 161 149 143 143 143 153 158 152 146 145 146 147 150 153 153 154 155 153 151 152 155 162 163 159
330 332 343 349 352 360 4 24 94 130 140 134 129 144 164 153 155 153 154 159 152 145 158 168 170 165 158 155 151 149 151 152 154 153 153 153 152 151 148 148 152 155 158
330 336 343 349 357 16 31 39 66 103 110 110 122 127 144 143 139 139 149 146 136 142 169 162 157 154 149 151 153 155 158 161 160 156 152 152 152 154 153 155 158 156 165
329 336 341 344 358 14 25 36 54 94 109 112 116 121 129 125 123 131 137 134 137 155 170 146 144 146 145 147 149 151 151 152 151 154 154 153 153 156 159 163 166 172 175
330 338 345 350 4 18 25 32 55 89 103 112 117 123 127 123 127 135 134 133 145 132 93 100 118 135 146 150 153 152 152 152 153 152 151 151 154 159 165 170 169 172 177
340 346 352 354 4 21 37 49 69 93 107 115 117 123 127 130 134 132 130 127 118 88 78 105 123 131 143 152 155 153 155 159 162 159 153 152 157 164 166 171 176 178 181